Regional Weather Roundup
Issued by NWS

Home | Current Version | Previous Version | Text Only | Print | Product List | Glossary On
Versions: 1 2 3 4 5 6 7 8 9 10 11 12 13 14 15 16 17 18 19 20 21 22 23 24 25 26 27 28 29 30 31 32 33 34 35 36 37 38 39 40 41 42 43 44 45 46 47 48 49 50
000
ASUS42 KTBW 221510
RWRFL
FLORIDA REGIONAL WEATHER ROUNDUP
NATIONAL WEATHER SERVICE TAMPA BAY RUSKIN FL
1000 AM EST MON DEC 22 2014

NOTE: "FAIR" INDICATES FEW OR NO CLOUDS BELOW 12,000 FEET WITH NO
SIGNIFICANT WEATHER AND/OR OBSTRUCTIONS TO VISIBILITY.


FLZ001>010-012>015-112-114-115-221600-
PANHANDLE FLORIDA

CITY           SKY/WX    TMP DP  RH WIND       PRES   REMARKS
PENSACOLA      LGT RAIN  53  53 100 E10       29.90S
PENSACOLA NAS  CLOUDY    58  57  97 E9        29.90
MILTON NAS     LGT RAIN  55  54  96 E5        29.93S
CRESTVIEW      RAIN      54  53  97 E5        29.95R FOG
DUKE FIELD     LGT RAIN  55  54  94 NE3       29.93F
VALPARAISO     RAIN      57  53  88 VRB1      29.92S FOG
MARY ESTHER    HVY RAIN  57  54  88 E1        29.92R FOG
PANAMA CITY    LGT RAIN  59  57  93 NE3       29.94S
TYNDALL AFB    FOG       57  57 100 NE9       29.96F VSB 1
APALACHICOLA   LGT RAIN  65  61  87 NE7       29.95R VSB 1/2

STATION/POSITION SKY/WX   TEMP    WIND        PRES    WAVE   SWELL
                          AIR SEA DIR/SP/G            HT/PER HT/PER
                          (F)     (DEG/KT/KT) (MB)    (FT/S) (FT/S)
30.1N   87.6W              69 71  130/ 14/ 16 1011.1F   2/ 4
29.2N   88.2W              73 74  160/  8/ 10 1011.2R   2/ 5   2/ 5
28.7N   86.0W              75 74  230/  8/ 10 1012.8R   3/ 4   2/ 4
PANAMA CITY BEAC           59 61   80/ 13/ 16 1013.6F
CAPE SAN BLAS    NOT AVBL
TOWER C                    65     110/ 13/ 14 1013.5F
28.5N   84.5W              74 73  160/  8/  8 1013.7R   4/ 6   3/ 6

$$
FLZ011-016>038-118-127-128-134-139-239-221600-
NORTH FLORIDA

CITY           SKY/WX    TMP DP  RH WIND       PRES   REMARKS
MARIANNA       LGT RAIN  53  53 100 N8        29.99R
TALLAHASSEE    FOG       57  54  89 NE3       30.00R VSB 1/4
PERRY          CLOUDY    63  62  97 N5        29.98S FOG
CROSS CITY       N/A     67  66  97 SE5       29.97F
LAKE CITY      CLOUDY    64  64 100 SE7       30.00S
GAINESVILLE    CLOUDY    66  65  96 SE9       30.00F
MAYPORT NAS    CLOUDY    65  61  87 S14       30.01S
JACKSONVILLE   CLOUDY    66  66 100 S9        30.00S
JAX NAS        CLOUDY    68  63  84 S9        30.02S
JAX CRAIG      CLOUDY    67  64  90 S9        30.01S
JAX CECIL      CLOUDY    64  64 100 SE7       30.01S FOG
FERNANDINA BEA CLOUDY    70  68  94 S8        30.00S
ST AUGUSTINE   CLOUDY    68  66  93 SE7       30.03R

STATION/POSITION SKY/WX   TEMP    WIND        PRES    WAVE   SWELL
                          AIR SEA DIR/SP/G            HT/PER HT/PER
                          (F)     (DEG/KT/KT) (MB)    (FT/S) (FT/S)
SHELL POINT                60      30/  5/  7   N/A
KEATON BEACH               67     130/  8/ 11 1014.9F
CEDAR KEY                  63     120/  9/ 11 1015.5S
FERNANDINA                 65 59  170/  6/ 10 1015.6R
30.7N   81.3W                 61                N/A     3/ 6
MAYPORT                    65 62  170/  8/ 12   N/A
31.4N   80.9W              57 59   30/ 12/ 14 1016.5R   3/ 9   2/ 9
ST AUGUSTINE               64     160/  6/  6 1017.3R

$$
FLZ040-043>046-052-053-057-058-063-144-221600-
INTERIOR CENTRAL FLORIDA

CITY           SKY/WX    TMP DP  RH WIND       PRES   REMARKS
OCALA          CLOUDY    66  64  94 S7        30.01F
THE VILLAGES     N/A     70  68  94 SE7       29.92F
LEESBURG       PTSUNNY   69  65  86 SE5       30.03R
SANFORD        MOSUNNY   68  65  90 SE7       30.03S
ORLANDO EXEC   LGT RAIN  69  66  90 SE7       30.03F
ORLANDO INTL   PTSUNNY   69  67  93 SE3       30.04S
KISSIMMEE      MOSUNNY   68  68 100 SE5       30.04R
WINTER HAVEN   PTSUNNY   72  66  81 S8        30.04S
LAKELAND       PTSUNNY   72  66  83 MISG      30.03R
BARTOW         MOSUNNY   72  68  88 SE9       30.04R
OKEECHOBEE     SUNNY     73  68  83 SE8       30.05S

$$
FLZ041-047-054-059-064-141-147-221600-
EAST CENTRAL FLORIDA

CITY           SKY/WX    TMP DP  RH WIND       PRES   REMARKS
ORMOND BEACH   PTSUNNY   70  64  83 S8        30.03S
DAYTONA BEACH  MOSUNNY   72  64  76 S8        30.04S
DELAND         PTSUNNY  N/A N/A N/A SE8       30.05R
NEW SMYRNA BEA   N/A     72  66  83 SE7       30.05
JFK SPACE CTR  CLOUDY    71  66  87 SE6       30.04S
TITUSVILLE     PTSUNNY   68  66  94 E7        30.04S
CAPE CANAVERAL CLOUDY    71  67  85 SE6       30.04R
PATRICK AFB    CLOUDY    71  68  89 SE6       30.05R
MELBOURNE      PTSUNNY   75  66  73 S9        30.05R
VERO BEACH     MOSUNNY   75  66  73 S10       30.05R
FT PIERCE      SUNNY     76  66  71 S8        30.05R
STUART         MOSUNNY   75  66  73 S9        30.06R

STATION/POSITION SKY/WX   TEMP    WIND        PRES    WAVE   SWELL
                          AIR SEA DIR/SP/G            HT/PER HT/PER
                          (F)     (DEG/KT/KT) (MB)    (FT/S) (FT/S)
28.5N   80.2W              74 76  130/ 10/ 12 1017.3R
28.9N   78.5W              74 77  160/  2/  4 1018.4S   4/ 9   3/ 9
TRIDENT PIER               70 66  120/  3/  4 1017.0R
28.4N   80.5W                 67                N/A     2/11
27.6N   80.2W                 76                N/A     2/ 8

$$
FLZ050-056-061-142-242-148-248-149-249-151-251-155-255-
160-260-221600-
WEST CENTRAL FLORIDA

CITY           SKY/WX    TMP DP  RH WIND       PRES   REMARKS
CRYSTAL RIVER  CLOUDY    68  64  88 SE7       30.00S
INVERNESS      CLOUDY    68  66  94 SE6       30.01F
BROOKSVILLE    PTSUNNY   70  67  90 SE13      30.00F
ZEPHYRHILLS    FAIR      70  68  94 SE3       30.03S
CLEARWATER     PTSUNNY   70  67  90 SE10      30.00S
TAMPA INTL     PTSUNNY   71  65  81 SE7G16    30.01S
TAMPA EXEC     MOSUNNY   73  68  83 SE6       30.02R
PLANT CITY     MOSUNNY   73 N/A N/A SE9       30.04S
MACDILL AFB    PTSUNNY   70  69  98 SE9       30.01R
PETER O KNIGHT MOSUNNY   72  68  88 S8        30.01S
ST PETERSBURG  PTSUNNY   67  65  93 CALM      29.99S
SARASOTA       PTSUNNY   72  68  87 SE10      30.00R
VENICE         FAIR      77  68  73 S18G25    30.01S

STATION/POSITION SKY/WX   TEMP    WIND        PRES    WAVE   SWELL
                          AIR SEA DIR/SP/G            HT/PER HT/PER
                          (F)     (DEG/KT/KT) (MB)    (FT/S) (FT/S)
CEDAR KEY                  63     120/  9/ 11 1015.5S
28.5N   84.5W              74 73  160/  8/  8 1013.7R   4/ 6   3/ 6
27.3N   84.3W                 74                N/A     6/ 7
CLEARWATER BEACH           71 64  140/  9/ 13 1015.1S
MIDDLE TAMPA BAY           70     180/  8/ 10 1016.3R
VENICE                     72 67  150/ 18/ 20 1015.9R

$$
FLZ066-069-070-075>078-162-262-165-265-221600-
SOUTHWEST FLORIDA AND KEYS

CITY           SKY/WX    TMP DP  RH WIND       PRES   REMARKS
PUNTA GORDA    PTSUNNY   74  67  78 S14       30.04R
FT MYERS       SUNNY     76  68  76 S10       30.01S
SOUTHWEST INTL PTSUNNY   76  68  76 S12       30.02S
NAPLES         SUNNY     76  68  76 S12       30.03R
MARCO ISLAND   CLOUDY    75  68  78 S9        30.04R
MARATHON       SUNNY     78  72  81 SE8       30.03S
KEY WEST NAS   PTSUNNY   80  71  74 SE15      30.02S
KEY WEST INTL  SUNNY     78  71  79 S13       30.03R

STATION/POSITION SKY/WX   TEMP    WIND        PRES    WAVE   SWELL
                          AIR SEA DIR/SP/G            HT/PER HT/PER
                          (F)     (DEG/KT/KT) (MB)    (FT/S) (FT/S)
VENICE                     72 67  150/ 18/ 20 1015.9R
NAPLES                     74 74  160/  7/ 11 1017.4R
26.0N   85.6W              76 76  200/ 12/ 16 1014.1R   4/ 7   2/ 7
DRY TORTUGAS               75     150/ 10/ 11 1015.8R
NW FL BAY                  73     150/  6/  7 1017.1R
SAND KEY                   77     160/ 17/ 19 1016.5S
SOMBRERO KEY               77     140/ 15/ 16 1017.7R
LONG KEY                   76 72  160/  8/  8 1017.8R
MOLASSES REEF              77 76  160/ 13/ 14 1017.3R

$$
FLZ067-068-071>074-168-172>174-221600-
SOUTHEAST FLORIDA

CITY           SKY/WX    TMP DP  RH WIND       PRES   REMARKS
W PALM BEACH   PTSUNNY   79  68  69 S14       30.04S
FT LAUDER-EXEC MOSUNNY   79  67  66 SE13      30.04S
FT LAUDERDALE  PTSUNNY   76  68  76 S10       30.04S
POMPANO BEACH  MOSUNNY   77  67  71 S12       30.05R
PEMBROKE PINES MOSUNNY   79  68  69 SE13      30.06S
OPA LOCKA      MOSUNNY   77  68  73 S12G22    30.05S
MIAMI          PTSUNNY   78  68  71 S9        30.05S
WEST KENDALL   MOSUNNY   78  69  73 SE9       30.05R
HOMESTEAD      MOSUNNY   78  68  71 S10       30.05R

STATION/POSITION SKY/WX   TEMP    WIND        PRES    WAVE   SWELL
                          AIR SEA DIR/SP/G            HT/PER HT/PER
                          (F)     (DEG/KT/KT) (MB)    (FT/S) (FT/S)
PORT EVERGLADES            78     160/  8/ 11 1017.4
VIRGINIA KEY               77 74  160/  8/ 10 1018.1R
LAKE WORTH                 76 76  170/  9/ 11 1017.2S


USA.gov is the U.S. government's official web portal to all federal, state and local government web resources and services.